Wakefield, VA

5:51 PM EDT on April 24, 2017 (GMT -0400)
Wakefield Municipal

Weather History for KAKQ - November, 2013

Change the Weather History Date:

Thursday, November 28, 2013

  Actual Average (KJGG) Record (KJGG)
Temperature  
Mean Temperature 34 °F -  
Max Temperature 42 °F 63 °F 80 °F (1973)
Min Temperature 25 °F 40 °F 23 °F (1956)
Degree Days  
Heating Degree Days 32    
Moisture  
Dew Point 19 °F    
Average Humidity 61    
Maximum Humidity 85    
Minimum Humidity 35    
Precipitation  
Precipitation 0.00 in - - ()
Sea Level Pressure  
Sea Level Pressure 30.39 in    
Wind  
Wind Speed 3 mph (NW)    
Max Wind Speed 6 mph    
Max Gust Speed -    
Visibility 10 miles    
Events      
Averages and records for this station are not official NWS values.
T = Trace of Precipitation, MM = Missing Value Source: NWS Daily Summary

Daily Weather History Graph

Daily Weather History Graph

Search for Another Location

Airport or City:

Trip Planner

Search our weather history database for the weather conditions in past years. The results will help you decide how hot, cold, wet, or windy it might be!

Date:

Astronomy

Nov. 28, 2013 Rise Set
Actual Time 6:59 AM EST 4:51 PM EST
Civil Twilight 6:31 AM EST 5:20 PM EST
Nautical Twilight 5:59 AM EST 5:52 PM EST
Astronomical Twilight 5:28 AM EST 6:23 PM EST
Moon 2:06 AM EST (11/28) 1:54 PM EST (11/28)
Length of Visible Light 10h 48m
Length of Day
9h 52m
Waning Crescent, 22% of the Moon is Illuminated
Nov 28
Waning Crescent
Dec 2
New
Dec 9
First Quarter
Dec 17
Full
Dec 25
Last Quarter

Hourly Weather History & Observations

Time (EST) Temp. Windchill Dew Point Humidity Pressure Visibility Wind Dir Wind Speed Gust Speed Precip Events Conditions
12:54 AM 32.0 °F 27.5 °F 23.0 °F 69% 30.14 in 10.0 mi WNW 4.6 mph - N/A   Clear
1:54 AM 32.0 °F 26.4 °F 19.0 °F 59% 30.19 in 10.0 mi Variable 5.8 mph - N/A   Clear
2:54 AM 30.0 °F 25.2 °F 18.0 °F 61% 30.21 in 10.0 mi WNW 4.6 mph - N/A   Clear
3:54 AM 30.0 °F 25.2 °F 15.1 °F 54% 30.23 in 10.0 mi Variable 4.6 mph - N/A   Clear
4:54 AM 28.9 °F 25.2 °F 15.1 °F 56% 30.26 in 10.0 mi NW 3.5 mph - N/A   Clear
5:54 AM 27.0 °F - 15.1 °F 61% 30.32 in 10.0 mi Calm Calm - N/A   Clear
6:54 AM 25.0 °F - 18.0 °F 75% 30.34 in 10.0 mi Calm Calm - N/A   Clear
7:54 AM 27.0 °F - 19.0 °F 72% 30.38 in 10.0 mi Calm Calm - N/A   Clear
8:54 AM 30.9 °F 26.2 °F 18.0 °F 59% 30.41 in 10.0 mi West 4.6 mph - N/A   Clear
9:54 AM 34.0 °F 31.0 °F 15.1 °F 46% 30.44 in 10.0 mi Variable 3.5 mph - N/A   Clear
10:54 AM 37.0 °F 33.3 °F 16.0 °F 42% 30.43 in 10.0 mi Variable 4.6 mph - N/A   Clear
11:54 AM 39.0 °F 35.7 °F 16.0 °F 39% 30.41 in 10.0 mi North 4.6 mph - N/A   Clear
12:54 PM 41.0 °F 38.0 °F 17.1 °F 38% 30.40 in 10.0 mi NNW 4.6 mph - N/A   Clear
1:54 PM 42.1 °F 40.2 °F 17.1 °F 37% 30.40 in 10.0 mi Variable 3.5 mph - N/A   Clear
2:54 PM 42.1 °F 39.2 °F 17.1 °F 37% 30.41 in 10.0 mi West 4.6 mph - N/A   Clear
3:54 PM 42.1 °F - 16.0 °F 35% 30.43 in 10.0 mi Calm Calm - N/A   Clear
4:54 PM 35.1 °F - 25.0 °F 67% 30.44 in 10.0 mi Calm Calm - N/A   Clear
5:54 PM 30.0 °F - 21.9 °F 72% 30.46 in 10.0 mi Calm Calm - N/A   Clear
6:54 PM 28.9 °F - 23.0 °F 78% 30.48 in 10.0 mi Calm Calm - N/A   Clear
7:54 PM 28.0 °F - 23.0 °F 81% 30.50 in 10.0 mi Calm Calm - N/A   Clear
8:54 PM 28.0 °F - 23.0 °F 81% 30.50 in 8.0 mi Calm Calm - N/A   Clear
9:54 PM 27.0 °F - 23.0 °F 85% 30.51 in 10.0 mi Calm Calm - N/A   Clear
10:54 PM 27.0 °F - 23.0 °F 85% 30.51 in 9.0 mi Calm Calm - N/A   Clear
11:54 PM 26.1 °F - 21.9 °F 84% 30.51 in 10.0 mi Calm Calm - N/A   Clear